Regional Weather Roundup
Issued by NWS Newport/Morehead, NC

Current Version | Previous Version | Graphics & Text | Print | Product List | Glossary Off
Versions: 1 2 3 4 5 6 7 8 9 10 11 12 13 14 15 16 17 18 19 20 21 22 23 24 25 26 27 28 29 30 31 32 33 34 35 36 37 38 39 40 41 42 43 44 45 46 47 48 49 50

000
ASUS42 KMHX 200225
RWRMHX
WEATHER ROUNDUP FOR EASTERN NORTH CAROLINA
NATIONAL WEATHER SERVICE NEWPORT/MOREHEAD CITY NC
1000 PM EDT THU OCT 19 2017

NOTE: "FAIR" INDICATES FEW OR NO CLOUDS BELOW 12,000 FEET
WITH NO SIGNIFICANT WEATHER AND/OR OBSTRUCTIONS TO VISIBILITY

NCZ015>017-031-032-045>047-102-103-200300-
NORTH COAST

CITY           SKY/WX    TMP DP  RH WIND       PRES   REMARKS
EDENTON        CLEAR     59  56  92 CALM      30.21S
ELIZABETH CITY CLEAR     57  57 100 CALM      30.20S
KITTY HAWK     CLEAR     64  60  90 CALM      30.19S
MANTEO         CLEAR    N/A N/A N/A CALM      30.21S

$$

NCZ045>047-081-094-103-104-200300-
CENTRAL COAST

CITY           SKY/WX    TMP DP  RH WIND       PRES   REMARKS
FRISCO         CLEAR     60  59  96 N5        30.20S

$$

NCZ095-097-098-100-101-200300-
SOUTHERN COAST

CITY           SKY/WX    TMP DP  RH WIND       PRES   REMARKS
BEAUFORT       CLEAR     60  59  96 CALM      30.20S
CEDAR ISLAND   NOT AVBL
JACKSONVILLE   CLEAR     62  61  96 W3        30.20S
PINEY ISLAND     N/A    N/A N/A N/A CALM      30.20S
WILMINGTON     CLEAR     62  60  93 CALM      30.21R


$$

NCZ011>013-027>030-043-044-078>080-089-090>093-098-200300-
COASTAL PLAIN

CITY           SKY/WX    TMP DP  RH WIND       PRES   REMARKS
AHOSKIE        CLEAR     51  51 100 CALM      30.21S
CLINTON        CLEAR     57  56  99 CALM      30.22S
ELIZABETHTOWN  NOT AVBL
GOLDSBORO      CLEAR     59  54  83 CALM      30.20R HAZE
GREENVILLE     FOG       55  55 100 CALM      30.22S VSB 1/2
HAVELOCK       CLEAR     61  59  93 VRB3      30.22
KENANSVILLE    CLEAR     54  54 100 CALM      30.22R
KINSTON        CLEAR     55  54  94 CALM      30.22R
NEW BERN       CLEAR     58  58 100 CALM      30.22R
RICHLANDS      CLEAR     57  56  96 CALM      30.22R
ROCKY MOUNT    CLEAR     53  53 100 CALM      30.22R
WASHINGTON     CLEAR     58  56  92 CALM      30.21S
WHITEVILLE     CLEAR     60  58  94 CALM      30.21S

$$

AMZ130-135-150-152-154-156-158-170-250-252-270-ANZ085-086-088-633-658-670-200300-
MARINE OBSERVATIONS

STATION/POSITION TIME  TEMP    WIND        PRES    WAVE   SWELL
                       AIR SEA DIR/SP/G            HT/PER HT/PER
                 (UTC) (F)     (DEG/KT/KT) (MB)    (FT/S) (FT/S)
CHESAPEAKE LIGHT NOT AVBL
64 E VA BEACH    0150   68 68  160/  4/  6 1022.7    3/ 8   3/ 8
DUCK             0200   66 69  210/  5/  6 1022.2
2 E DUCK         0200      70                N/A     3/ 8
OREGON INLET     0200   66 69  130/  2/  3 1022.4
13E OREGON INLT  0148      71                N/A     3/ 9   3/ 9
HATTERAS CG      0200   68 70  360/  2/  3 1022.6
DIAMOND BUOY     0150   74 81   20/  6/  8 1022.2    4/ 8   3/ 8
CAPE LOOKOUT     0200   70      10/  3/  3 1022.3
BEAUFORT LAB     0200   66 71  360/  1/  1 1022.8
30 SE NEW RVR IN 0208   74      70/  4/  8 1022.4
30 SE NEW RVR IN NOT AVBL
27 SE WRIGHTSVLE 0208   75 76   90/  8/ 14 1022.6
5 SE WRIGHTSVLE  0208   74 74   90/  4/  8 1022.5
225 S CAPE HAT   0150   78 80   40/ 16/ 17 1019.4    6/ 8   3/ 8
41 SE CHARLESTON 0210   76 80   30/ 12/ 16 1021.7

$$




USA.gov is the U.S. government's official web portal to all federal, state and local government web resources and services.